DW5868 Weather Reports


time (UTC)temp
F
wind
direction
speed
knots
gust
knots
rain 1hr
in
rain 24hr
in
rain mn
in
humidity
%
barometer
mb
20260906231519 60 213 5.2 18.2 0.00 0.00 0.00 38 1007.2
20260906230022 60 272 5.2 21.7 0.00 0.00 0.00 38 1007.2
20260906224518 61 203 3.5 13.9 0.00 0.00 0.00 38 1007.2
20260906223022 61 134 3.5 13.9 0.00 0.00 0.00 37 1007.5
20260906221516 61 264 4.3 20.0 0.00 0.00 0.00 36 1007.8
20260906220022 61 202 3.5 17.4 0.00 0.00 0.00 37 1007.8
20260906214524 60 257 6.1 20.9 0.00 0.00 0.00 36 1008.2
20260906213014 60 269 6.1 21.7 0.00 0.00 0.00 33 1008.1
20260906211512 60 255 7.0 24.3 0.00 0.00 0.00 31 1008.3
20260906210012 60 304 6.1 23.5 0.00 0.00 0.00 31 1008.2
20260906204511 60 310 7.0 24.3 0.00 0.00 0.00 26 1008.5
20260906203009 61 237 7.0 20.9 0.00 0.00 0.00 24 1008.3
20260906201508 61 284 5.2 21.7 0.00 0.00 0.00 25 1008.5
20260906200008 61 250 5.2 15.6 0.00 0.00 0.00 24 1008.4
20260906194507 60 280 8.7 16.5 0.00 0.00 0.00 27 1008.4
20260906193005 62 273 4.3 13.0 0.00 0.00 0.00 29 1008.6
20260906191505 61 276 5.2 18.2 0.00 0.00 0.00 30 1008.7
20260906190004 60 298 5.2 21.7 0.00 0.00 0.00 31 1008.5
20260906184510 60 207 6.1 18.2 0.00 0.00 0.00 30 1008.6
20260906183003 61 294 7.0 19.1 0.00 0.00 0.00 29 1008.6
20260906181600 61 290 3.5 22.6 0.00 0.00 0.00 31 1008.4
20260906180100 61 321 6.1 15.6 0.00 0.00 0.00 29 1008.4
20260906174605 60 220 7.0 16.5 0.00 0.00 0.00 29 1008.3
20260906173114 61 275 4.3 18.2 0.00 0.00 0.00 28 1008.3
20260906171558 61 270 4.3 13.9 0.00 0.00 0.00 28 1008.3
20260906170057 60 246 3.5 13.0 0.00 0.00 0.00 29 1008.5
20260906164552 58 319 7.0 20.0 0.00 0.00 0.00 30 1008.7
20260906163056 58 244 4.3 14.8 0.00 0.00 0.00 31 1008.7
20260906161551 58 200 5.2 17.4 0.00 0.00 0.00 27 1008.7
20260906160052 57 287 4.3 13.9 0.00 0.00 0.00 29 1008.7
20260906154548 56 309 2.6 12.2 0.00 0.00 0.00 29 1008.8
20260906153048 56 319 7.0 18.2 0.00 0.00 0.00 29 1009.0
20260906151545 55 259 4.3 14.8 0.00 0.00 0.00 28 1009.1
20260906150043 53 268 7.8 15.6 0.00 0.00 0.00 37 1009.1
20260906144543 53 284 7.0 20.9 0.00 0.00 0.00 28 1008.8
20260906143041 53 175 4.3 20.0 0.00 0.00 0.00 27 1008.6
20260906141542 52 175 7.0 19.1 0.00 0.00 0.00 29 1008.3
20260906140046 0 0.0 0.0 0.00 0.00 0.00 1007.9
20260906134534 0 0.0 0.0 0.00 0.00 0.00 1007.8
20260906133029 0 0.0 0.0 0.00 0.00 0.00 1007.6
20260906131534 0 0.0 0.0 0.00 0.00 0.00 1007.3
20260906130022 0 0.0 0.0 0.00 0.00 0.00 1007.8
20260906124517 0 0.0 0.0 0.00 0.00 0.00 1007.9
20260906123014 0 0.0 0.0 0.00 0.00 0.00 1008.1
20260906121508 0 0.0 0.0 0.00 0.00 0.00 1008.3
20260906120004 0 0.0 0.0 0.00 0.00 0.00 1008.6
20260906114601 0 0.0 0.0 0.00 0.00 0.00 1009.0
20260906113103 51 146 5.2 17.4 0.00 0.00 0.00 26 1009.2
20260906111558 50 277 2.6 9.6 0.00 0.00 0.00 27 1009.1
20260906104554 49 282 4.3 12.2 0.00 0.00 0.00 33 1009.0
20260906103053 49 264 3.5 10.4 0.00 0.00 0.00 36 1008.8
20260906101552 49 279 5.2 16.5 0.00 0.00 0.00 39 1008.9
20260906100050 49 250 3.5 17.4 0.00 0.00 0.00 39 1009.1
20260906094604 48 279 5.2 21.7 0.00 0.00 0.00 46 1009.0
20260906093057 48 240 7.0 20.0 0.00 0.00 0.00 48 1009.3
20260906091545 48 261 7.0 18.2 0.00 0.00 0.00 48 1009.2
20260906090110 48 275 7.0 20.0 0.00 0.00 0.00 49 1009.6
20260906084551 48 277 7.8 20.0 0.00 0.00 0.00 51 1009.3
20260906083043 48 261 8.7 26.1 0.00 0.00 0.00 54 1009.5
20260906081539 48 223 7.0 15.6 0.00 0.00 0.00 53 1009.4
20260906080037 48 267 7.0 17.4 0.00 0.00 0.00 54 1009.2
20260906074544 48 163 5.2 20.0 0.00 0.00 0.00 54 1009.4
20260906073032 48 336 8.7 17.4 0.00 0.00 0.00 53 1009.6
20260906071533 48 262 5.2 20.0 0.00 0.00 0.00 51 1009.3
20260906070032 48 256 8.7 18.2 0.00 0.00 0.00 52 1009.1
20260906064534 49 267 7.8 22.6 0.00 0.00 0.00 53 1009.1
20260906063032 49 250 7.0 19.1 0.00 0.00 0.00 53 1009.0
20260906061540 48 286 5.2 19.1 0.00 0.00 0.00 57 1009.0
20260906060032 48 153 5.2 20.0 0.00 0.00 0.00 60 1009.2
20260906054531 48 269 4.3 17.4 0.00 0.00 0.00 60 1009.1
20260906053033 48 222 7.0 22.6 0.00 0.00 0.00 61 1009.3
20260906051536 48 289 7.8 20.0 0.00 0.00 0.00 62 1009.1
20260906050030 49 246 7.8 24.3 0.00 0.00 0.00 61 1009.1
20260906044529 49 275 7.8 20.9 0.00 0.00 0.00 60 1009.4
20260906043033 49 257 6.1 16.5 0.00 0.00 0.00 62 1009.1
20260906041543 49 257 7.0 28.7 0.00 0.00 0.00 60 1009.3
20260906040033 49 256 7.0 20.0 0.00 0.00 0.00 61 1008.9
20260906034535 50 161 5.2 15.6 0.00 0.00 0.00 61 1009.1
20260906033030 50 93 6.1 13.9 0.00 0.00 0.00 60 1008.8
20260906031535 50 252 4.3 23.5 0.00 0.00 0.00 60 1008.5
20260906030034 50 173 3.5 12.2 0.00 0.00 0.00 61 1008.9
20260906024528 51 336 3.5 18.2 0.00 0.00 0.00 60 1008.7
20260906023027 51 257 3.5 12.2 0.00 0.00 0.00 61 1008.7
20260906021528 51 231 5.2 16.5 0.00 0.00 0.00 60 1008.6
20260906020027 52 271 3.5 14.8 0.00 0.00 0.00 59 1008.7
20260906014541 53 207 2.6 14.8 0.00 0.00 0.00 58 1008.5
20260906013027 54 272 3.5 20.9 0.00 0.00 0.00 57 1008.7
20260906011526 55 259 4.3 17.4 0.00 0.00 0.00 54 1008.5
20260906010053 56 163 3.5 19.1 0.00 0.00 0.00 52 1008.6
20260906004524 57 263 3.5 18.2 0.00 0.00 0.00 52 1008.5
20260906003025 57 229 5.2 13.9 0.00 0.00 0.00 51 1008.4
20260906001536 58 278 4.3 16.5 0.00 0.00 0.00 51 1008.5
20260906000023 58 270 5.2 15.6 0.00 0.00 0.00 50 1008.2
20260905234522 59 312 5.2 16.5 0.00 0.00 0.00 50 1008.2
20260905233022 59 224 5.2 14.8 0.00 0.00 0.00 50 1008.1